Location: Unspecified
(0.0000°N, 0.0000°E)
Time: 19:28:30
(UTC+00:00)

STARLINK-30241 - Visible Passes

Search period start: 10 November 2025 00:00
Search period end: 20 November 2025 00:00
Orbit: 435 x 474 km, 43.0° (Epoch: 08 November)

Date Brightness Start Highest point End Pass type
(mag) Time Alt. Az. Time Alt. Az. Time Alt. Az.
10 Nov 3.5 05:06:53 10° WSW 05:10:17 45° NW 05:13:42 10° NNE visible
11 Nov 3.0 04:31:23 36° WSW 04:32:36 65° NW 04:36:07 10° NE visible
12 Nov 5.6 03:57:09 17° NE 03:57:09 17° NE 03:58:02 10° NE visible
